Flag for Germany Weather past 2 weeks in Chemnitz, Saxony, Germany

Now
45 °F

Broken clouds.


Feels Like: 38 °F
Forecast: 36 / 44 °F
Wind: 14 mph from Southwest

Location: Altenburg Nobitz

Current Time: Mar 1, 2015 at 6:33:17 PM

Latest Report: Mar 1, 2015 at 4:20 PM


Visibility: N/A

Pressure: 29.68 "Hg

Humidity: 81%

Dew point: 39 °F

Location of ChemnitzLocation

Historic Weather in Chemnitz — Graph

°F

Chemnitz temperature yesterday

Maximum temperature yesterday: 45 °F (at 2:20 PM)
Minimum temperature yesterday: 37 °F (at 8:50 AM)
Average temperature yesterday: 41 °F

Past Weeks' High & Low Weather Summary

 TemperatureHumidityPressure
High50 °F (Feb 20, 1:50 PM)100% (Feb 15, 9:20 AM)30.74 "Hg (Feb 15, 9:20 AM)
Low28 °F (Feb 26, 8:20 AM)40% (Feb 26, 4:20 PM)29.45 "Hg (Feb 21, 12:20 PM)
Average41 °F73%30.01 "Hg
* Reported Feb 14 4:20 PM — Mar 1 4:20 PM, Chemnitz, Weather by CustomWeather, © 2015

Note: Actual official high and low records may vary slightly from our data, if they occured in-between our weather recording intervals... More about our weather records

Advertising

Chemnitz weather history for previous 24 hours

 ConditionsComfort  
Time TempWeatherWind HumidityBarometerVisibility
4:20 PM
Sun, Mar 1
45 °FBroken clouds.14 mph81%29.68 "HgN/A
3:50 PM45 °FBroken clouds.16 mph76%29.65 "HgN/A
3:20 PM45 °FBroken clouds.20 mph76%29.65 "HgN/A
2:50 PM46 °FSunny.18 mph76%29.65 "Hg10 mi
2:20 PM46 °FBroken clouds.18 mph76%29.65 "HgN/A
1:50 PM45 °FBroken clouds.20 mph76%29.65 "HgN/A
1:20 PM45 °FPartly sunny.18 mph76%29.68 "HgN/A
12:50 PM43 °FPartly sunny.21 mph81%29.68 "HgN/A
12:20 PM43 °FPartly sunny.22 mph76%29.68 "HgN/A
11:50 AM43 °FPartly sunny.15 mph81%29.68 "HgN/A
11:20 AM41 °FPartly sunny.20 mph76%29.68 "HgN/A
10:50 AM41 °FPartly sunny.20 mph76%29.68 "HgN/A
10:20 AM39 °FPartly sunny.16 mph81%29.68 "HgN/A
9:50 AM39 °FLight rain. Partly sunny.18 mph81%29.71 "HgN/A
9:20 AM39 °FLight rain. Partly sunny.16 mph81%29.71 "HgN/A
8:50 AM39 °FLight rain. Scattered clouds.16 mph81%29.71 "HgN/A
Weather by CustomWeather, © 2015

See weather overviewHow to use our weather pages